Panchvalley Pa 59386 Schedule, Route, Map - Chhindwara to Indore train
Must See India - Best Travel Guide to India
Home   |   Login   |   Register   |   Contact Us
 

Panchvalley Pa (59386)

Print
     

Service Days:

All Days

Classes:

AC 3 Tier (3A), First Class (FC), Sleeper (SL)

Duration:

16h 20m

Station Arrival Departure Stop Time Distance Day
1 Chhindwara (CWA) starts 09:05 pm Starts 0 km 1
2 Gangiwara (GNW) 09:26 pm 09:27 pm 1 min 14 km 1
3 Khirsadoh Jn (KUX) 09:47 pm 09:48 pm 1 min 22 km 1
4 Parasia (PUX) 09:54 pm 09:56 pm 2 min 29 km 1
5 Iklehra (IKR) 10:06 pm 10:07 pm 1 min 35 km 1
6 Palachauri (PCLI) 10:16 pm 10:17 pm 1 min 40 km 1
7 Junnor Deo (JNO) 10:28 pm 10:29 pm 1 min 48 km 1
8 Hirdagarh (HRG) 10:43 pm 10:44 pm 1 min 58 km 1
9 Morkadhana (MKDN) 10:52 pm 10:53 pm 1 min 63 km 1
10 Nawagaon (NVG) 11:04 pm 11:05 pm 1 min 73 km 1
11 Barelipur (BQM) 11:14 pm 11:15 pm 1 min 79 km 1
12 Bordhal (BXY) 11:24 pm 11:25 pm 1 min 89 km 1
13 Barchi Road (BCRD) 11:32 pm 11:33 pm 1 min 96 km 1
14 Jambara (JMV) 11:41 pm 11:42 pm 1 min 102 km 1
15 Amla Jn (AMLA) 12:25 am 12:40 am 15 min 116 km 2
16 Barsali (BYS) 12:49 am 12:50 am 1 min 125 km 2
17 Malkapur Road (MALK) 12:59 am 01:00 am 1 min 132 km 2
18 Betul (BZU) 01:09 am 01:10 am 1 min 138 km 2
19 Maramjhiri (MJY) 01:23 am 01:24 am 1 min 147 km 2
20 Ghoradongri (GDYA) 01:56 am 01:57 am 1 min 175 km 2
21 Barbatpur (BBTR) 02:09 am 02:10 am 1 min 187 km 2
22 Dhodra Mohar (DOH) 02:29 am 02:30 am 1 min 198 km 2
23 Kala Akhar (KQE) 02:59 am 03:00 am 1 min 212 km 2
24 Taku (TAKU) 03:39 am 03:40 am 1 min 223 km 2
25 Kiratgarh (KRTH) 04:19 am 04:20 am 1 min 235 km 2
26 Itarsi (ET) 05:35 am 05:55 am 20 min 245 km 2
27 Powerkheda (PRKD) 06:06 am 06:07 am 1 min 254 km 2
28 Hoshangabad (HBD) 06:18 am 06:19 am 1 min 263 km 2
29 Budni (BNI) 06:30 am 06:31 am 1 min 270 km 2
30 Barkhera (BKA) 07:07 am 07:08 am 1 min 290 km 2
31 Obaidulla Ganj (ODG) 07:19 am 07:20 am 1 min 301 km 2
32 Mandi Dip (MDDP) 07:28 am 07:29 am 1 min 315 km 2
33 Misrod (MSO) 07:44 am 07:45 am 1 min 325 km 2
34 Habibganj (HBJ) 08:03 am 08:05 am 2 min 331 km 2
35 Bhopal (BPL) 08:45 am 09:05 am 20 min 337 km 2
36 Bairagarh (BIH) 09:15 am 09:16 am 1 min 347 km 2
37 Sehore (SEH) 09:41 am 09:42 am 1 min 376 km 2
38 Kalapipal (KPP) 10:07 am 10:08 am 1 min 405 km 2
39 Shujalpur (SJP) 10:20 am 10:21 am 1 min 417 km 2
40 Akodia (AKD) 10:34 am 10:35 am 1 min 430 km 2
41 Berchha (BCH) 10:57 am 10:58 am 1 min 460 km 2
42 Maksi (MKC) 11:34 am 11:36 am 2 min 479 km 2
43 Ranyal jasmiya (RCJ) 11:51 am 11:52 am 1 min 495 km 2
44 Dewas (DWX) 12:16 pm 12:18 pm 2 min 515 km 2
45 Indore (INDB) 01:25 pm ends Ends 554 km 2

 

 Click to view map

You can drag the map with your mouse, and double-click to zoom.

People who viewed this page also viewed

 
Alibag honeymoon package from Bangalore
 
Corbett National Park honeymoon packages from Bangalore
 
Gulmarg packages from Kolkata
 
Hotels in Pune
 
Kalimpong packages from Delhi
 
Kasauli honeymoon packages from Mumbai
 
Madhya Pradesh packages from Pune
 
Manipur packages from Chennai
 
Tirupati package tour
 
Wayanad packages from Pune
 
darjeeling gangtok tour package
 
kerala tour packages from kolkata
 

Destinations

 
 

More

 
debug_temp: train_route : train:1707:Panchvalley Pa:Train